Weather History for Clarion, IA

Change the Weather History Date:

Thursday, January 23, 2014

  Actual Average Record
Temperature  
Mean Temperature -3 °F -  
Max Temperature 5 °F 28 °F 50 °F (1981)
Min Temperature -11 °F 8 °F -24 °F (1963)
Degree Days  
Heating Degree Days 68    
Moisture  
Dew Point -13 °F    
Average Humidity 66    
Maximum Humidity 78    
Minimum Humidity 59    
Precipitation  
Precipitation 0.00 in - - ()
Sea Level Pressure  
Sea Level Pressure 30.60 in    
Wind  
Wind Speed 16 mph (WNW)    
Max Wind Speed 23 mph    
Max Gust Speed 31 mph    
Visibility 10 miles    
Events      
Averages and records for this station are not official NWS values.
T = Trace of Precipitation, MM = Missing Value Source: NWS Daily Summary

Daily Weather History Graph

Daily Weather History Graph

Search for Another Location

Airport:

Trip Planner

Search our weather history database for the weather conditions in past years. The results will help you decide how hot, cold, wet, or windy it might be!

Date:

Astronomy

Jan. 23, 2014 Rise Set
Actual Time 7:37 AM CST 5:16 PM CST
Civil Twilight 7:07 AM CST 5:47 PM CST
Nautical Twilight 6:32 AM CST 6:21 PM CST
Astronomical Twilight 5:59 AM CST 6:55 PM CST
Moon No Moon Rise 11:02 AM CST
Length of Visible Light 10h 40m
Length of Day
9h 38m
Waning Gibbous, 55% of the Moon is Illuminated
Jan 23
Waning Gibbous
Jan 23
Last Quarter
Jan 30
New
Feb 6
First Quarter
Feb 14
Full

Hourly Weather History & Observations

Time (CST) Temp. Windchill Dew Point Humidity Pressure Visibility Wind Dir Wind Speed Gust Speed Precip Events Conditions
12:15 AM -7.6 °F -31.1 °F -16.6 °F 65% 30.49 in 9.0 mi NNW 18.4 mph 25.3 mph N/A   Overcast
12:35 AM -7.6 °F -31.7 °F -16.6 °F 65% 30.49 in 10.0 mi NNW 19.6 mph 27.6 mph N/A   Overcast
12:55 AM -7.6 °F -30.5 °F -16.6 °F 65% 30.49 in 10.0 mi NNW 17.3 mph 26.5 mph N/A   Scattered Clouds
1:15 AM -7.6 °F -31.1 °F -16.6 °F 65% 30.49 in 10.0 mi NNW 18.4 mph 27.6 mph N/A   Partly Cloudy
1:35 AM -7.6 °F -31.1 °F -16.6 °F 65% 30.50 in 10.0 mi NNW 18.4 mph - N/A   Partly Cloudy
1:55 AM -7.6 °F -32.9 °F -16.6 °F 65% 30.50 in 10.0 mi NNW 21.9 mph - N/A   Mostly Cloudy
2:15 AM -9.4 °F -33.5 °F -16.6 °F 71% 30.52 in 10.0 mi NNW 18.4 mph 27.6 mph N/A   Overcast
2:35 AM -9.4 °F -33.5 °F -18.4 °F 65% 30.53 in 10.0 mi NNW 18.4 mph 31.1 mph N/A   Mostly Cloudy
2:55 AM -9.4 °F -32.1 °F -18.4 °F 65% 30.54 in 10.0 mi NNW 16.1 mph 25.3 mph N/A   Mostly Cloudy
3:15 AM -9.4 °F -33.5 °F -16.6 °F 71% 30.55 in 10.0 mi NNW 18.4 mph - N/A   Overcast
3:35 AM -9.4 °F -33.5 °F -18.4 °F 65% 30.55 in 10.0 mi NNW 18.4 mph - N/A   Overcast
3:55 AM -9.4 °F -33.5 °F -18.4 °F 65% 30.55 in 10.0 mi NNW 18.4 mph 24.2 mph N/A   Overcast
4:15 AM -9.4 °F -32.8 °F -18.4 °F 65% 30.56 in 10.0 mi NNW 17.3 mph 24.2 mph N/A   Mostly Cloudy
4:35 AM -9.4 °F -34.1 °F -18.4 °F 65% 30.57 in 10.0 mi NNW 19.6 mph - N/A   Partly Cloudy
4:55 AM -9.4 °F -35.2 °F -18.4 °F 65% 30.58 in 10.0 mi NNW 21.9 mph - N/A   Mostly Cloudy
5:15 AM -9.4 °F -35.2 °F -18.4 °F 65% 30.59 in 10.0 mi NNW 21.9 mph - N/A   Mostly Cloudy
5:35 AM -9.4 °F -35.8 °F -18.4 °F 65% 30.60 in 10.0 mi NNW 23.0 mph - N/A   Partly Cloudy
5:55 AM -9.4 °F -34.7 °F -18.4 °F 65% 30.61 in 10.0 mi NW 20.7 mph - N/A   Partly Cloudy
6:15 AM -9.4 °F -33.5 °F -18.4 °F 65% 30.63 in 10.0 mi NNW 18.4 mph - N/A   Mostly Cloudy
6:35 AM -11.2 °F -33.7 °F -18.4 °F 70% 30.64 in 10.0 mi NNW 15.0 mph - N/A   Overcast
6:55 AM -11.2 °F -32.9 °F -20.2 °F 64% 30.65 in 10.0 mi NNW 13.8 mph 19.6 mph N/A   Mostly Cloudy
7:15 AM -11.2 °F -33.7 °F -20.2 °F 64% 30.66 in 10.0 mi NNW 15.0 mph - N/A   Scattered Clouds
7:35 AM -11.2 °F -32.1 °F -20.2 °F 64% 30.66 in 10.0 mi NW 12.7 mph - N/A   Scattered Clouds
7:55 AM -11.2 °F -32.1 °F -20.2 °F 64% 30.67 in 10.0 mi NW 12.7 mph - N/A   Mostly Cloudy
8:15 AM -11.2 °F -33.7 °F -20.2 °F 64% 30.68 in 10.0 mi NW 15.0 mph - N/A   Partly Cloudy
8:35 AM -9.4 °F -32.8 °F -18.4 °F 65% 30.68 in 10.0 mi NNW 17.3 mph - N/A   Clear
8:55 AM -9.4 °F -34.7 °F -18.4 °F 65% 30.69 in 10.0 mi NNW 20.7 mph - N/A   Clear
9:15 AM -9.4 °F -35.2 °F -18.4 °F 65% 30.69 in 10.0 mi NNW 21.9 mph - N/A   Clear
9:35 AM -7.6 °F -29.1 °F -18.4 °F 59% 30.70 in 10.0 mi NNW 15.0 mph 21.9 mph N/A   Clear
9:55 AM -7.6 °F -31.1 °F -16.6 °F 65% 30.71 in 10.0 mi NNW 18.4 mph - N/A   Clear
10:15 AM -7.6 °F -28.3 °F -16.6 °F 65% 30.72 in 10.0 mi NW 13.8 mph 21.9 mph N/A   Clear
10:35 AM -5.8 °F -28.2 °F -16.6 °F 60% 30.72 in 9.0 mi NW 17.3 mph - N/A   Clear
10:55 AM -5.8 °F -26.8 °F -14.8 °F 65% 30.73 in 9.0 mi NW 15.0 mph - N/A   Clear
11:15 AM -5.8 °F -28.2 °F -14.8 °F 65% 30.72 in 9.0 mi NW 17.3 mph - N/A   Partly Cloudy
11:35 AM -4.0 °F -25.2 °F -13.0 °F 65% 30.72 in 8.0 mi NW 16.1 mph - N/A   Partly Cloudy
11:55 AM -2.2 °F -21.5 °F -11.2 °F 66% 30.72 in 7.0 mi NW 13.8 mph 20.7 mph N/A   Partly Cloudy
12:15 PM -2.2 °F -20.7 °F -11.2 °F 66% 30.71 in 9.0 mi NW 12.7 mph - N/A   Scattered Clouds
12:35 PM -2.2 °F -22.2 °F -11.2 °F 66% 30.71 in 8.0 mi WNW 15.0 mph - N/A   Scattered Clouds
12:55 PM -0.4 °F -19.2 °F -11.2 °F 60% 30.69 in 9.0 mi NW 13.8 mph 19.6 mph N/A   Partly Cloudy
1:15 PM -0.4 °F -18.4 °F -9.4 °F 66% 30.69 in 7.0 mi WNW 12.7 mph 18.4 mph N/A   Partly Cloudy
1:35 PM 1.4 °F -15.3 °F -9.4 °F 61% 30.68 in 9.0 mi WNW 11.5 mph 17.3 mph N/A   Scattered Clouds
1:55 PM 1.4 °F -17.6 °F -9.4 °F 61% 30.68 in 10.0 mi WNW 15.0 mph - N/A   Scattered Clouds
2:15 PM 1.4 °F -17.6 °F -7.6 °F 66% 30.67 in 9.0 mi NW 15.0 mph - N/A   Scattered Clouds
2:35 PM 3.2 °F -15.9 °F -7.6 °F 61% 30.66 in 9.0 mi NW 16.1 mph - N/A   Scattered Clouds
2:55 PM 3.2 °F -14.6 °F -5.8 °F 66% 30.66 in 10.0 mi NW 13.8 mph - N/A   Scattered Clouds
3:15 PM 3.2 °F -15.3 °F -5.8 °F 66% 30.66 in 10.0 mi WNW 15.0 mph - N/A   Scattered Clouds
3:35 PM 3.2 °F -13.9 °F -7.6 °F 61% 30.66 in 10.0 mi WNW 12.7 mph - N/A   Mostly Cloudy
3:55 PM 3.2 °F -13.9 °F -5.8 °F 66% 30.66 in 10.0 mi WNW 12.7 mph - N/A   Mostly Cloudy
4:15 PM 5.0 °F -11.6 °F -5.8 °F 61% 30.66 in 10.0 mi NW 12.7 mph - N/A   Overcast
4:35 PM 3.2 °F -12.2 °F -5.8 °F 66% 30.65 in 10.0 mi WNW 10.4 mph - N/A   Overcast
4:55 PM 3.2 °F -12.2 °F -5.8 °F 66% 30.64 in 10.0 mi WNW 10.4 mph - N/A   Overcast
5:15 PM 1.4 °F -12.5 °F -7.6 °F 66% 30.63 in 10.0 mi WNW 8.1 mph - N/A   Mostly Cloudy
5:35 PM -0.4 °F -13.4 °F -7.6 °F 72% 30.63 in 10.0 mi West 6.9 mph - N/A   Partly Cloudy
5:55 PM -2.2 °F - -9.4 °F 71% 30.62 in 10.0 mi Calm Calm - N/A   Clear
6:15 PM -2.2 °F -15.6 °F -9.4 °F 71% 30.61 in 10.0 mi West 6.9 mph - N/A   Clear
6:35 PM -4.0 °F -14.6 °F -11.2 °F 71% 30.61 in 10.0 mi WSW 4.6 mph - N/A   Clear
6:55 PM -4.0 °F -19.0 °F -11.2 °F 71% 30.60 in 10.0 mi WSW 8.1 mph - N/A   Clear
7:15 PM -4.0 °F -16.3 °F -11.2 °F 71% 30.59 in 10.0 mi SW 5.8 mph - N/A   Clear
7:35 PM -5.8 °F -19.9 °F -11.2 °F 77% 30.57 in 10.0 mi SSW 6.9 mph - N/A   Clear
7:55 PM -4.0 °F -20.2 °F -11.2 °F 71% 30.56 in 10.0 mi SSW 9.2 mph - N/A   Clear
8:15 PM -4.0 °F -20.2 °F -11.2 °F 71% 30.54 in 10.0 mi SSW 9.2 mph - N/A   Clear
8:35 PM -4.0 °F -20.2 °F -11.2 °F 71% 30.53 in 10.0 mi SSW 9.2 mph - N/A   Clear
8:55 PM -4.0 °F -19.0 °F -11.2 °F 71% 30.51 in 10.0 mi SSW 8.1 mph - N/A   Clear
9:15 PM -2.2 °F -18.0 °F -9.4 °F 71% 30.50 in 10.0 mi SSW 9.2 mph - N/A   Clear
9:35 PM -4.0 °F -21.2 °F -9.4 °F 78% 30.49 in 10.0 mi SSW 10.4 mph - N/A   Clear
9:55 PM -2.2 °F -18.0 °F -9.4 °F 71% 30.47 in 10.0 mi SSW 9.2 mph - N/A   Clear
10:15 PM -2.2 °F -18.9 °F -9.4 °F 71% 30.45 in 10.0 mi SSW 10.4 mph - N/A   Clear
10:35 PM -2.2 °F -19.9 °F -9.4 °F 71% 30.44 in 10.0 mi SSW 11.5 mph - N/A   Clear
10:55 PM -0.4 °F -18.4 °F -9.4 °F 66% 30.42 in 10.0 mi South 12.7 mph - N/A   Clear
11:15 PM -0.4 °F -18.4 °F -9.4 °F 66% 30.40 in 10.0 mi SSW 12.7 mph - N/A   Clear
11:35 PM 1.4 °F -16.1 °F -9.4 °F 61% 30.39 in 10.0 mi SSW 12.7 mph - N/A   Clear
11:55 PM 1.4 °F -16.9 °F -9.4 °F 61% 30.37 in 10.0 mi SSW 13.8 mph - N/A   Clear